Wind_Speed
14 15 17 20 20 19 20 19 16 16 15 14 11 11 11 11 10 10 10 10 9 9 8 8 8 8 7 7 7 7 8 8 8 8 8 9 10 11 11 12 14 14 15 14 15 15 15 14 13 13 14 13 12 12 12 11 10 11 11 11 12 12 15 18 15 10 8 8 7 5 4 3 2 4 4 4 8 8 5 5 8 10 5 4 11
14 14 15 17 17 18 19 18 16 15 14 13 11 11 12 12 11 11 10 10 9 8 8 8 8 7 7 7 7 7 7 7 7 7 8 10 10 10 11 12 13 14 14 14 14 14 14 13 12 12 11 8 9 11 8 6 9 13 13 12 11 10 9 13 16 13 9 7 6 5 4 5 2 2 2 5 5 7 5 3 6 7 5 7 11
15 14 15 15 15 17 18 17 16 15 13 12 12 12 13 12 12 11 10 10 9 8 9 8 8 8 8 8 8 7 7 7 7 7 9 9 9 9 11 13 12 12 12 13 12 12 12 11 11 10 9 7 8 9 8 9 13 14 12 10 8 7 8 9 13 15 13 9 7 8 6 5 4 2 2 3 4 7 4 1 2 4 6 8 10
17 17 16 15 14 16 17 17 17 15 13 12 12 13 13 12 12 11 10 10 9 8 9 9 8 8 8 8 8 8 8 7 7 8 8 8 7 9 11 11 11 10 11 11 10 10 10 10 9 8 7 7 7 7 7 9 11 11 9 7 5 3 4 8 8 9 11 11 8 7 5 1 3 3 2 2 4 9 7 4 5 7 9 11 13
16 16 16 14 14 15 17 16 16 15 12 11 12 12 13 13 12 11 10 10 9 8 9 9 8 9 9 9 9 9 9 8 8 8 8 7 7 8 9 9 9 9 9 10 10 9 9 9 8 7 7 6 6 5 3 3 6 6 7 9 8 5 4 5 5 2 2 6 8 6 2 2 2 2 2 3 2 7 6 4 7 8 11 12 13
12 13 14 14 13 14 14 14 14 14 12 12 12 12 12 12 12 12 11 10 9 8 9 9 9 9 9 9 10 10 10 9 9 8 8 8 7 7 8 8 8 7 7 9 9 9 8 8 8 7 6 5 4 4 3 2 4 4 5 7 8 6 5 5 3 2 2 3 3 5 4 1 2 4 4 4 3 6 6 7 9 10 12 13 14
10 11 11 12 12 13 13 13 14 14 13 12 13 13 12 12 12 12 12 11 9 8 8 8 8 9 9 9 10 10 10 11 10 10 9 8 8 8 8 8 7 7 7 8 8 8 8 8 8 7 6 5 4 5 5 2 2 1 4 5 5 5 5 3 1 2 2 2 2 3 7 6 4 3 2 4 5 6 9 11 11 11 12 13 16
8 9 10 10 10 10 11 11 12 13 12 12 12 12 13 13 12 12 11 11 10 9 8 8 8 8 9 9 9 10 11 11 11 11 10 10 10 9 9 9 8 8 8 8 8 9 8 7 8 8 7 6 6 6 6 3 2 1 0 1 2 4 4 1 2 1 0 4 5 3 4 6 6 4 2 6 7 8 9 9 9 9 11 15 18
10 10 9 9 8 7 8 8 9 10 11 11 10 11 12 12 12 11 10 10 10 9 9 9 9 9 9 8 9 9 10 11 11 12 12 12 12 12 11 11 11 10 10 10 10 10 10 10 11 12 10 9 8 7 5 3 3 3 3 3 2 2 2 2 3 2 3 6 7 5 4 3 4 3 3 6 6 6 7 6 6 9 14 19 20
11 10 9 8 7 6 6 6 7 8 9 9 9 10 10 9 10 9 7 8 9 10 11 11 10 10 10 9 9 9 9 10 11 12 13 13 14 14 14 14 13 13 13 13 12 12 13 14 14 13 12 9 8 8 6 6 6 6 4 4 5 5 3 2 3 4 4 7 8 7 7 7 6 5 6 6 5 5 7 8 10 14 17 18 18
10 9 9 7 6 6 5 5 6 7 7 6 7 8 8 8 9 8 7 9 11 11 10 10 10 11 10 8 6 5 6 8 10 13 14 14 14 15 15 15 15 15 15 15 15 14 14 14 14 14 12 11 10 10 9 9 10 10 8 6 7 9 7 4 3 3 3 5 7 5 6 9 9 7 7 6 6 7 8 11 13 14 15 14 15
8 8 7 6 6 6 4 4 6 5 4 4 5 6 7 7 8 8 9 12 13 12 10 10 11 12 12 11 7 5 7 11 12 13 15 16 16 15 15 15 16 16 16 16 16 15 14 13 13 13 12 12 12 12 12 12 12 13 13 11 9 11 10 7 5 3 1 3 4 4 4 6 7 6 6 6 8 10 12 14 12 11 12 13 14
9 8 8 6 5 5 4 4 5 5 4 4 3 4 5 6 6 7 8 9 12 13 13 13 14 14 16 16 11 7 9 14 17 16 15 17 19 19 17 17 17 17 18 18 16 15 14 12 11 12 12 13 14 16 16 14 13 14 16 15 13 13 13 11 9 7 3 1 3 4 3 3 6 5 5 7 10 11 12 12 11 10 12 14 16
12 12 11 10 9 8 7 6 5 4 3 3 3 3 5 5 6 6 7 8 11 14 15 15 16 17 18 17 15 12 11 16 21 23 21 20 22 23 21 18 17 19 19 15 10 9 12 15 15 13 13 16 18 18 16 15 14 15 16 17 17 15 14 13 12 11 8 5 1 1 1 1 2 2 5 8 9 9 8 10 11 13 15 17 19
16 17 17 16 15 14 12 10 9 7 4 2 1 3 4 6 7 8 8 10 12 14 15 16 17 18 19 17 15 15 16 16 20 25 26 25 25 25 25 22 17 16 15 9 5 7 11 16 18 16 16 20 21 19 17 16 14 14 15 17 17 15 14 14 13 12 10 7 5 4 3 3 3 5 8 10 11 10 10 12 14 15 17 18 19
19 20 21 20 19 18 17 15 13 11 9 7 5 5 4 5 6 7 8 10 12 14 15 16 16 17 19 18 16 16 18 19 21 25 27 26 26 27 29 27 21 17 15 11 9 10 12 16 18 19 20 22 20 17 17 16 14 13 13 14 13 13 14 14 12 11 10 7 7 6 5 6 7 9 11 12 12 12 13 13 13 13 14 16 17
18 18 18 19 19 18 18 18 17 15 13 11 10 9 7 6 6 6 7 9 11 13 14 15 16 17 19 20 18 18 21 23 25 28 28 27 26 27 30 29 25 20 18 14 13 14 15 17 18 19 20 21 18 15 15 15 14 12 11 13 14 13 13 13 12 11 10 8 7 7 7 9 10 11 11 12 12 11 11 11 10 10 12 14 14
14 14 15 16 16 16 16 16 17 16 15 14 14 12 11 10 10 9 8 9 10 12 13 14 16 17 19 20 20 20 22 23 24 27 29 29 28 27 29 28 23 19 18 17 15 15 16 17 18 20 21 20 17 16 15 15 13 11 12 16 15 11 11 14 14 12 10 9 7 7 8 9 10 11 11 11 11 10 9 8 8 9 10 12 13
11 11 12 12 13 14 14 14 14 14 14 14 14 14 13 12 12 13 12 12 12 12 13 14 16 17 18 19 19 20 20 21 22 24 28 31 30 28 28 25 21 19 18 17 16 15 15 17 18 18 19 18 17 17 17 16 13 12 15 18 15 12 12 13 13 12 9 6 5 6 8 9 10 11 11 11 10 9 8 7 8 8 9 12 14
11 11 10 10 11 13 14 15 15 14 13 14 14 14 14 14 14 15 15 16 15 15 15 15 15 15 16 16 18 20 20 20 22 24 26 27 27 28 28 24 20 18 17 16 16 15 15 15 14 14 17 19 18 17 18 17 15 14 17 17 14 14 13 11 10 9 6 3 3 6 8 9 11 11 11 11 11 11 10 9 8 8 10 12 13
12 12 11 11 11 13 15 16 16 15 15 16 16 16 16 16 16 17 17 17 17 18 18 18 18 17 15 15 15 17 18 18 19 24 26 23 22 27 29 24 20 18 19 18 17 15 15 15 15 15 17 17 17 17 19 18 15 14 17 15 11 12 13 12 11 9 4 2 3 5 6 7 10 11 11 11 10 8 8 7 6 8 9 12 14
13 13 13 13 13 14 15 16 17 18 18 18 19 19 19 18 18 18 19 19 19 20 20 19 20 19 16 15 15 16 17 16 16 21 26 23 21 25 27 24 21 21 21 19 18 16 16 19 20 17 15 16 17 19 19 16 13 14 15 14 13 14 12 8 7 5 2 2 3 4 5 7 8 9 8 7 3 1 1 3 6 10 13 15 15
11 11 12 13 14 15 16 17 18 18 19 19 20 21 21 20 20 20 20 21 21 22 22 21 21 20 17 16 14 13 14 15 15 19 24 24 23 25 26 23 20 20 21 20 20 20 20 22 21 19 17 19 20 20 18 14 13 13 13 12 11 10 8 5 4 4 2 1 3 5 7 8 8 7 6 5 3 2 4 9 13 15 16 16 15
10 11 12 12 13 14 15 16 18 19 20 21 21 22 22 21 22 21 22 22 22 22 22 21 20 20 18 15 15 14 13 13 15 19 22 23 24 27 27 23 19 20 21 20 21 23 22 22 23 21 21 22 21 19 16 13 11 10 8 7 5 4 4 5 4 3 2 2 4 6 7 6 5 5 6 6 7 9 12 14 14 12 11 12 13
12 13 13 13 14 15 15 16 16 17 18 20 21 22 22 21 21 22 21 22 22 22 22 21 20 20 17 13 13 14 12 11 14 18 21 23 25 26 26 23 19 21 21 19 21 23 22 22 23 22 21 21 19 17 14 12 9 8 5 5 4 3 3 4 2 2 2 2 4 5 4 3 3 5 6 8 10 11 12 12 11 10 11 13 14
14 15 15 15 16 16 16 17 16 16 17 18 19 20 21 21 22 22 21 21 22 22 22 22 21 20 17 13 11 13 13 14 15 16 19 22 22 20 21 20 21 23 24 22 21 22 20 21 23 20 18 18 16 14 13 10 8 6 5 5 5 5 4 3 3 2 1 2 2 2 3 3 5 7 8 9 10 10 10 12 12 12 13 14 15
16 16 16 17 17 18 18 19 19 19 19 19 19 19 19 20 21 22 21 21 22 22 23 22 21 21 19 12 8 11 15 15 14 14 17 20 20 17 16 17 20 25 27 24 22 21 22 23 22 19 17 16 13 12 11 8 7 7 6 6 6 5 5 6 4 2 2 1 1 2 3 4 6 8 8 9 9 8 9 10 12 12 14 15 16
15 16 16 16 17 17 17 18 19 20 19 20 20 20 19 19 20 21 22 20 17 17 18 18 19 20 18 11 7 9 13 14 14 15 18 21 23 21 19 18 21 26 28 26 24 24 25 23 21 18 17 14 12 10 9 8 8 7 7 7 6 5 5 4 2 2 3 3 1 2 4 5 7 7 7 8 8 8 9 11 12 13 14 15 15
14 14 14 15 15 15 16 17 17 18 20 21 22 22 22 23 22 22 24 24 22 22 22 21 22 18 12 11 9 8 11 15 18 18 18 22 26 28 26 24 24 25 26 26 26 27 25 22 20 18 16 13 12 10 9 9 9 7 7 8 7 5 4 4 2 3 5 4 1 2 4 5 6 7 7 8 9 10 11 12 12 13 13 14 14
13 13 13 13 14 15 16 17 17 18 19 20 22 23 24 25 25 24 24 25 27 28 28 27 24 19 12 10 11 9 8 12 18 21 22 25 28 28 28 26 25 25 25 25 26 27 25 22 19 17 15 13 12 11 10 10 9 8 8 8 6 5 6 6 4 3 4 2 1 2 3 5 6 6 6 7 9 10 11 11 12 12 13 13 14
12 12 13 14 15 16 17 17 17 18 19 19 20 22 23 24 25 25 24 24 26 28 29 27 24 20 16 14 14 13 11 11 15 20 24 26 25 24 25 25 24 26 26 25 25 25 24 21 19 17 14 13 12 12 12 12 11 9 9 7 5 4 4 5 4 2 2 1 1 2 3 5 6 6 6 7 9 10 10 10 11 11 12 13 13
12 13 14 15 16 16 16 16 17 18 18 19 19 20 20 21 23 22 23 24 24 25 26 25 22 18 16 15 15 15 15 14 14 18 24 28 28 27 26 25 24 25 23 20 21 23 22 20 19 17 15 14 12 12 13 13 12 11 9 8 7 6 4 5 5 3 2 2 2 2 3 4 4 5 6 8 8 9 9 10 11 12 12 12 12
13 14 15 15 15 15 15 16 16 17 17 18 18 18 18 19 19 20 22 24 24 24 24 23 20 16 14 15 16 15 17 18 16 15 18 21 23 24 24 23 22 23 21 20 21 23 22 20 19 18 16 14 13 13 13 12 11 11 10 8 9 10 8 5 4 3 2 2 2 3 3 3 5 6 6 7 8 9 9 10 11 11 10 10 12
13 14 15 16 17 18 18 17 17 17 17 17 18 18 18 18 18 19 20 21 22 22 22 22 19 16 14 16 18 17 17 17 16 16 17 17 18 19 20 19 19 19 18 19 22 23 21 19 18 17 16 14 13 13 13 10 9 9 8 6 8 10 8 5 3 3 3 2 3 3 3 4 5 5 5 6 7 7 8 10 10 10 10 11 13
14 15 16 18 19 20 20 18 17 17 17 17 16 16 16 17 18 18 18 19 20 21 22 22 19 16 15 16 17 18 18 18 18 19 21 21 21 22 22 23 23 23 21 20 21 22 21 19 18 17 16 15 14 14 12 10 9 9 8 6 6 7 7 5 4 3 0 2 2 2 3 5 5 4 5 6 7 7 8 8 9 9 11 13 14
15 15 17 18 18 17 17 16 15 16 16 17 17 17 17 18 18 18 18 19 19 19 21 22 19 15 14 15 17 18 21 22 22 21 22 22 23 24 25 25 26 25 24 22 21 20 20 19 17 16 16 15 15 13 11 10 9 9 9 8 6 6 6 6 4 1 1 1 1 2 4 5 5 6 6 6 6 7 7 7 8 11 13 13 14
15 15 16 17 17 16 15 15 14 14 15 17 17 17 17 17 17 17 18 18 19 20 22 22 17 12 11 13 15 18 21 22 20 19 19 18 18 20 22 22 23 23 22 21 19 18 18 18 16 16 16 16 15 13 10 10 9 9 8 8 7 6 6 5 3 2 2 1 1 3 5 6 7 8 8 7 6 6 7 9 11 13 14 14 15
13 14 15 16 16 15 15 15 14 14 14 15 15 15 15 16 17 17 17 18 20 22 23 22 17 11 10 12 15 17 19 19 18 17 16 15 16 18 21 23 24 24 23 21 16 14 16 18 17 17 18 17 14 13 12 10 9 9 8 6 6 5 4 4 4 3 2 1 2 4 6 7 8 9 9 9 9 9 10 12 13 13 14 14 15
13 13 14 16 16 14 13 13 13 14 13 13 14 14 15 16 17 16 16 17 19 20 21 22 20 15 12 13 17 19 19 19 18 18 18 19 19 19 20 22 23 22 22 21 15 11 15 19 17 17 20 17 14 15 14 10 9 9 7 6 6 5 3 4 5 5 3 3 4 5 6 7 7 8 7 7 8 9 10 11 11 11 13 14 15
13 13 15 15 15 14 13 12 12 13 14 14 14 15 15 16 17 16 16 16 18 20 21 21 17 13 12 13 15 16 17 18 17 17 18 20 20 18 18 19 19 20 23 22 15 13 17 19 16 16 19 17 14 15 14 9 7 8 6 5 5 5 3 3 5 5 4 4 3 4 7 7 7 7 6 6 7 8 9 10 11 13 14 15 16
12 14 14 14 14 14 14 13 12 13 13 14 14 16 17 17 18 18 18 18 18 17 16 11 6 7 9 10 10 9 10 13 14 14 15 17 17 17 17 17 20 23 24 17 13 13 17 18 15 16 18 16 15 17 15 10 7 6 5 4 5 5 4 5 5 4 5 4 3 5 6 6 6 7 7 6 6 8 8 9 11 13 14 15 15
12 13 14 14 15 15 14 13 12 11 12 14 16 17 18 19 18 16 15 15 14 11 6 1 5 6 6 9 10 9 9 11 13 14 15 16 16 18 19 19 20 21 17 12 10 15 19 17 15 16 16 16 16 17 14 10 8 8 8 8 6 5 6 7 6 4 4 3 3 5 7 6 7 8 8 7 7 8 8 9 11 12 13 14 14
11 12 13 14 15 13 12 13 13 13 14 15 16 15 15 13 11 9 8 6 4 2 2 5 7 8 10 11 10 9 10 12 15 16 18 19 18 20 20 19 17 14 12 12 15 18 18 17 17 16 15 14 15 14 12 10 10 9 9 8 7 5 5 5 4 3 3 2 3 5 6 7 7 7 8 8 8 9 10 11 11 12 13 13 14
10 10 11 13 15 14 13 14 14 14 16 18 17 14 13 12 12 13 15 15 12 8 8 8 9 10 12 12 10 9 11 14 17 20 21 20 18 16 16 15 14 14 14 15 17 17 18 19 19 18 17 17 17 16 14 13 12 11 10 8 7 5 4 3 2 2 3 3 5 5 5 6 6 6 7 7 7 9 11 11 11 13 15 15 15
10 10 10 11 12 13 14 15 15 15 16 19 20 16 12 13 16 16 15 15 14 12 10 9 9 9 11 12 13 13 15 18 20 20 19 17 14 14 16 17 17 17 16 16 16 17 19 20 20 18 17 17 16 16 14 12 11 10 10 8 6 5 5 4 3 3 3 4 5 6 5 4 4 5 6 6 7 10 12 11 11 13 15 16 16
10 10 10 10 10 11 11 13 15 14 15 18 20 18 14 14 18 20 18 16 14 13 13 13 13 13 14 15 16 17 19 21 22 21 19 19 19 19 20 20 20 19 18 17 18 19 20 20 20 19 17 15 12 11 11 10 9 8 7 6 6 6 6 5 3 3 3 4 5 6 6 5 5 5 4 6 8 11 12 11 12 13 15 15 16
11 10 9 9 10 9 10 11 12 13 14 15 18 18 15 14 16 19 20 18 16 15 15 15 17 17 17 17 18 19 21 24 25 24 23 23 23 23 22 22 21 21 21 21 22 22 22 22 21 20 19 17 14 13 12 11 9 7 5 5 5 4 4 5 5 3 3 4 5 6 7 7 7 6 5 8 10 11 11 11 12 14 16 16 15
12 11 10 10 10 10 10 10 11 11 12 13 15 17 16 15 15 16 17 17 16 15 14 13 14 14 15 18 20 21 23 25 25 24 23 24 24 24 23 22 21 21 21 22 22 22 22 21 20 20 19 17 15 14 12 10 8 5 4 4 3 3 3 5 5 4 3 4 4 5 7 9 8 7 8 10 11 11 11 11 12 15 16 14 13
11 11 11 12 12 11 11 11 11 11 11 11 12 14 15 16 15 14 14 14 14 13 13 13 14 16 18 21 23 23 24 24 23 23 23 23 22 22 21 20 19 18 19 20 20 20 20 19 18 17 16 14 12 11 9 7 5 4 3 2 2 2 3 3 5 5 4 4 4 6 8 9 8 8 9 10 10 10 11 12 13 15 15 12 13
10 10 10 11 11 12 12 12 11 12 12 12 12 13 14 16 16 15 14 14 13 14 14 15 17 19 21 23 24 24 24 24 23 24 24 24 22 21 19 18 16 15 15 15 16 16 16 16 16 16 14 12 10 9 7 5 3 2 2 2 2 2 2 2 5 6 5 4 4 6 8 9 10 10 10 10 10 11 12 13 14 14 13 12 14
8 8 9 10 10 11 11 12 12 13 13 14 14 14 14 15 15 16 16 15 15 15 17 18 20 21 23 24 25 26 26 26 26 26 25 24 22 19 17 16 16 15 15 15 14 13 13 13 13 14 12 10 8 7 6 4 3 2 3 3 2 2 2 2 4 7 7 6 5 6 8 10 11 11 10 11 12 11 11 12 14 13 12 13 14
Wind_Direction
158 160 166 168 168 167 161 152 147 150 153 152 156 160 162 163 162 161 161 159 159 156 152 149 143 137 134 132 130 132 132 130 130 130 130 131 130 129 129 126 123 123 124 121 117 114 110 105 101 102 105 102 98 99 93 89 96 87 77 73 66 73 97 110 114 108 105 117 116 111 116 109 130 128 94 16 1 6 340 278 312 336 336 349 349
163 160 163 166 170 169 158 150 151 154 152 152 157 161 163 166 166 166 167 168 168 167 163 159 155 151 146 143 139 138 139 137 137 135 129 130 131 131 131 127 123 123 120 115 114 113 110 107 102 104 108 98 98 111 106 95 107 97 84 78 65 54 75 111 127 129 128 138 140 138 106 44 53 177 302 337 357 10 4 314 317 332 327 326 336
153 153 157 160 166 169 161 153 153 154 155 160 164 165 166 169 171 171 170 172 176 177 170 165 166 163 154 150 149 146 145 141 139 138 135 135 133 128 127 126 125 123 117 115 114 111 108 104 102 105 100 80 85 98 81 71 88 92 85 78 70 56 52 85 125 142 146 153 163 154 132 44 54 122 290 317 1 357 349 324 328 349 354 350 344
142 144 150 154 157 160 160 158 156 153 157 166 167 165 168 172 175 176 174 175 180 179 172 172 176 172 163 160 156 153 149 144 145 146 145 145 137 125 127 128 125 123 124 124 120 114 112 107 105 105 95 83 84 88 84 80 85 93 103 103 99 106 73 69 103 146 152 153 157 141 126 176 170 148 232 202 34 358 328 321 6 9 360 357 349
136 138 143 149 151 154 158 160 159 157 160 165 165 166 172 176 180 182 179 177 181 180 177 180 184 180 176 172 165 160 157 152 153 155 153 153 145 134 134 136 135 134 133 132 129 128 125 119 121 117 106 102 95 93 99 76 80 98 124 130 127 123 114 87 69 63 106 128 143 135 74 314 266 355 310 225 32 12 353 5 28 12 349 345 343
125 132 139 143 145 150 156 160 163 164 163 165 166 169 175 180 183 186 185 182 184 183 182 188 193 191 188 186 177 168 165 163 164 165 164 164 160 153 152 151 150 148 140 136 137 137 135 133 135 130 124 124 110 112 125 77 88 81 68 107 132 135 137 141 114 69 26 36 110 157 167 239 322 341 325 299 358 42 37 20 13 358 346 343 337
115 125 127 129 136 144 152 158 164 168 169 172 174 177 183 187 187 189 189 188 189 189 190 198 204 203 200 197 189 181 177 175 173 173 173 176 176 173 172 169 167 165 157 151 150 149 146 143 142 138 136 140 137 139 146 149 156 120 52 85 136 150 145 164 195 122 114 334 321 173 171 179 218 250 306 348 5 27 16 357 350 344 339 337 333
96 101 106 114 124 136 144 152 160 166 169 173 178 182 188 192 194 195 192 189 192 196 199 206 214 217 217 212 202 194 189 186 184 184 184 185 187 187 187 184 182 183 178 174 174 168 159 148 147 155 164 171 177 169 158 160 198 218 350 65 109 130 138 225 295 95 96 278 275 256 210 197 197 211 339 5 360 355 352 344 341 340 333 331 331
77 77 84 97 109 123 136 147 156 162 168 176 183 187 190 194 198 202 199 193 194 200 206 211 217 224 230 227 217 207 199 197 199 196 194 195 196 196 197 196 194 193 190 188 188 181 175 172 170 173 177 180 186 185 174 174 191 200 227 241 214 169 178 279 299 312 313 301 305 313 291 221 161 139 28 24 25 13 4 358 350 338 330 328 328
76 79 80 86 95 107 123 141 153 157 165 175 183 186 190 192 193 199 204 200 198 203 210 217 218 220 229 234 229 217 204 205 214 210 204 205 205 204 205 204 202 201 197 195 194 186 182 186 187 184 179 176 186 197 203 206 208 215 237 233 207 198 192 216 282 298 298 306 327 350 357 7 35 51 47 46 37 21 12 2 347 335 329 326 322
70 71 74 82 88 90 97 120 138 147 157 164 169 175 185 194 193 195 208 212 209 206 210 222 226 222 225 233 235 219 193 195 206 208 209 213 211 210 213 211 208 209 206 201 198 191 189 192 194 193 192 192 201 214 218 215 213 221 239 236 201 199 201 203 244 280 295 308 316 328 355 12 22 29 39 39 15 359 354 347 340 334 330 325 319
90 85 77 76 84 85 78 93 114 125 137 149 157 166 181 197 201 203 212 219 222 221 218 228 235 232 229 232 239 230 204 202 201 201 210 219 218 214 216 216 217 218 213 209 205 194 189 191 191 196 206 209 214 223 226 224 219 217 227 236 222 212 217 217 214 205 133 14 356 352 10 37 41 17 358 356 347 337 333 333 334 331 326 322 315
81 81 79 66 64 78 80 90 107 114 127 146 161 173 185 204 216 218 222 230 238 239 234 234 239 238 235 236 243 248 223 211 210 212 220 226 223 218 219 221 223 224 221 219 212 193 184 191 196 197 207 217 226 233 232 229 226 220 224 237 242 234 231 233 234 230 224 356 25 23 12 47 62 37 345 336 338 333 329 325 321 314 310 308 302
55 44 48 43 32 35 42 47 59 74 113 151 182 207 210 222 228 221 224 236 243 245 242 239 239 239 238 240 242 240 225 210 212 221 230 235 230 223 222 224 226 230 229 226 221 207 200 209 215 212 216 226 231 233 231 226 223 221 224 235 244 247 244 242 242 244 247 256 275 43 332 244 85 21 314 317 323 324 319 311 307 304 302 300 299
45 29 27 27 20 19 22 21 22 17 7 17 271 241 231 231 231 224 220 224 230 236 239 240 241 241 242 243 238 233 229 220 216 223 230 236 236 232 229 228 229 237 240 235 246 245 214 204 210 216 224 229 228 224 225 224 217 214 222 231 238 245 245 241 241 242 242 238 224 212 227 252 269 286 297 307 309 305 300 297 299 303 304 304 304
32 21 15 13 10 10 9 6 4 358 350 346 331 302 277 249 240 236 231 230 228 228 233 239 243 244 245 241 231 225 228 227 225 226 229 231 234 235 235 234 234 242 248 239 233 230 206 193 202 211 217 222 219 215 220 224 217 215 219 219 220 228 232 229 226 224 222 216 215 224 244 264 278 287 295 301 302 300 300 302 308 314 315 311 307
23 15 8 3 1 0 359 355 352 350 345 337 329 324 317 302 286 263 243 239 237 233 234 237 237 238 243 241 234 228 231 236 238 236 233 231 230 233 236 236 236 242 249 242 228 218 203 195 199 202 206 210 206 203 212 217 214 213 203 189 193 208 215 212 211 212 214 218 229 247 261 271 281 292 301 306 307 307 311 318 325 325 317 309 306
18 8 359 354 351 349 347 343 339 336 332 328 327 330 326 317 311 302 283 268 258 252 248 243 237 237 240 240 239 236 236 242 244 240 236 235 233 231 233 235 234 236 241 237 227 217 206 198 196 195 198 201 195 190 198 203 201 198 183 174 181 197 205 207 209 211 217 230 248 265 275 285 295 304 312 315 314 317 322 329 334 327 310 299 301
4 354 351 345 338 334 328 321 317 315 314 315 319 321 319 314 308 304 301 292 279 269 263 254 246 242 240 239 238 236 233 236 241 240 237 236 235 232 230 230 229 229 230 224 216 213 206 198 196 195 195 195 189 187 194 196 189 185 181 177 182 199 211 213 213 215 221 235 261 281 294 305 310 315 320 319 316 316 312 310 325 324 296 282 289
349 344 340 329 320 315 310 305 303 304 303 303 304 305 306 306 303 299 298 295 287 278 273 269 264 255 245 240 240 238 234 236 242 244 238 232 230 228 225 226 225 218 208 197 194 200 202 197 194 195 193 190 188 191 195 194 186 182 185 184 187 199 204 197 189 190 194 205 259 291 304 309 308 311 314 309 297 291 286 287 300 301 290 294 307
338 334 328 318 310 306 303 302 301 300 297 296 296 294 292 291 291 290 288 287 283 279 274 271 273 270 258 247 242 235 231 236 245 248 242 232 225 222 221 224 223 204 186 180 182 190 199 194 184 184 186 187 191 193 189 188 188 184 182 178 166 166 174 176 174 177 190 247 291 303 305 300 295 293 293 289 281 278 280 287 292 288 300 323 334
330 327 324 321 315 308 304 303 302 299 296 293 291 290 287 283 282 281 280 280 280 279 275 269 268 269 261 251 244 232 225 231 245 250 245 235 227 224 221 220 213 194 182 184 184 184 194 193 183 181 185 186 186 183 178 180 182 172 166 159 146 142 149 160 173 180 210 300 313 310 304 301 297 293 294 301 315 7 244 275 286 291 302 316 321
322 321 320 318 316 313 309 308 307 303 300 297 293 289 285 281 279 276 275 276 276 275 274 268 264 264 259 249 242 230 219 221 234 247 248 239 229 225 218 211 207 199 193 192 185 181 189 190 181 178 182 179 175 172 170 172 170 161 159 158 156 152 147 147 171 194 211 247 294 300 296 296 299 304 312 315 314 307 297 295 298 303 309 313 314
317 316 316 314 313 312 310 308 307 306 304 303 301 296 290 284 280 276 273 272 269 268 268 265 261 262 259 246 233 225 214 210 221 238 246 240 230 222 212 203 200 199 197 193 185 182 185 183 174 171 173 171 170 170 170 170 168 166 167 171 179 192 172 161 187 213 196 228 274 281 279 283 304 324 323 306 292 299 307 304 299 304 315 318 315
320 317 315 314 311 310 308 306 305 304 304 303 302 301 298 292 284 279 274 271 268 264 263 263 262 263 259 244 228 223 213 205 217 232 238 235 228 220 211 207 208 202 197 194 185 178 176 172 167 166 169 170 171 173 172 175 178 179 186 193 193 187 162 162 199 221 198 252 272 273 284 317 333 322 312 306 303 308 315 315 313 318 324 323 319
321 319 316 315 314 312 310 308 307 306 305 302 298 297 297 297 292 286 278 274 273 271 267 262 260 262 261 247 223 210 202 201 213 227 229 224 218 208 200 204 207 197 187 182 173 163 163 166 163 161 163 167 170 173 173 175 181 182 184 181 163 148 153 164 163 162 185 294 316 332 347 339 317 306 309 314 315 318 323 327 329 329 327 325 323
322 318 313 313 314 312 311 311 311 309 306 301 297 293 290 290 291 289 284 279 275 275 274 269 262 259 258 249 218 200 197 200 211 221 214 203 196 193 190 186 177 168 162 158 155 154 157 160 158 156 159 161 162 166 167 166 168 166 159 150 143 149 174 185 180 170 189 268 346 353 337 321 313 311 311 311 315 322 329 336 340 338 332 328 324
320 314 310 310 310 309 308 309 310 308 305 302 301 300 296 291 289 287 286 287 290 293 298 301 291 269 245 222 204 205 203 206 214 214 202 187 179 179 180 171 157 151 149 147 147 151 155 155 154 154 157 157 155 156 158 157 156 151 142 143 154 174 187 189 205 209 186 184 213 325 316 313 313 312 310 315 328 341 345 344 342 335 327 323 319
315 309 307 307 306 306 307 307 307 306 305 304 303 302 302 303 302 293 286 288 298 306 308 312 312 297 254 212 203 199 200 215 224 221 213 203 189 179 174 169 160 154 153 153 151 150 151 151 152 152 152 153 154 154 156 156 154 153 155 158 170 198 200 181 169 163 165 169 191 325 313 306 306 308 313 323 334 343 344 339 333 328 324 320 317
311 308 308 307 308 311 311 307 304 303 302 302 301 300 301 304 307 305 298 293 295 299 299 296 296 297 280 236 213 194 194 223 229 225 220 211 194 178 171 171 166 159 157 158 155 151 150 152 153 153 154 157 160 164 168 166 162 168 179 176 170 170 166 158 154 149 147 146 320 306 293 294 295 300 313 329 335 336 333 329 326 326 326 324 322
310 308 308 308 311 313 311 305 302 301 299 298 299 300 302 304 304 306 307 302 297 299 300 295 288 284 274 250 231 225 228 230 222 215 212 204 190 178 172 170 167 162 158 154 150 149 151 154 155 157 161 164 170 177 177 173 170 173 182 188 185 173 164 167 171 155 116 115 274 275 280 288 293 307 331 341 337 333 330 329 329 330 327 324 322
309 309 310 311 312 311 307 303 301 299 297 297 296 296 298 302 304 305 307 306 304 303 301 294 285 277 266 250 236 228 220 208 196 198 202 198 190 182 175 170 166 163 161 159 154 154 156 158 159 163 168 171 179 186 180 174 175 180 184 191 193 191 191 193 196 209 226 222 243 280 288 291 310 341 349 342 338 338 338 334 330 326 321 317 316
310 310 309 306 305 304 302 300 297 295 293 293 294 293 294 297 301 304 305 307 309 310 307 299 287 272 253 238 231 220 205 194 183 177 182 184 178 172 169 166 164 164 164 164 161 159 160 163 166 169 172 177 185 186 177 171 177 182 186 194 191 182 177 179 191 201 196 210 268 285 285 318 342 346 340 335 337 338 333 326 322 321 321 323 325
308 307 304 302 301 298 296 292 289 289 289 289 288 290 290 290 294 298 302 305 310 313 312 307 295 278 255 236 229 226 221 214 201 188 186 187 183 176 169 162 163 168 170 168 164 162 162 167 170 171 177 186 186 174 165 168 178 178 178 185 179 168 159 151 149 158 171 230 273 266 280 320 326 324 326 327 325 324 323 323 324 329 334 335 330
309 308 307 308 307 303 297 289 283 282 284 286 287 289 289 290 294 297 300 304 308 309 311 312 304 284 258 234 223 223 222 212 196 187 186 187 186 181 172 164 165 170 173 172 169 166 165 170 175 177 181 183 171 159 160 171 176 175 180 185 168 149 144 144 143 144 208 297 272 260 299 316 319 331 341 336 331 332 331 329 333 341 343 337 328
319 316 313 313 315 313 305 295 286 282 282 284 289 293 293 292 294 295 294 296 298 303 312 317 311 287 254 227 214 207 198 187 178 173 173 176 180 178 172 166 166 169 170 170 169 170 173 177 179 179 177 167 154 154 164 168 167 172 180 181 168 144 138 142 143 127 12 343 284 296 323 336 345 348 341 331 330 336 340 348 357 355 346 335 326
326 323 320 320 322 322 317 309 302 297 291 287 288 290 288 287 290 290 290 292 296 302 310 314 307 282 245 217 202 192 186 183 180 174 172 178 185 184 179 175 175 178 177 172 169 174 179 178 179 178 168 151 144 153 164 164 167 171 164 154 153 153 152 155 154 119 95 111 286 334 352 0 3 0 356 352 353 1 9 9 359 344 331 323 321
328 326 324 326 327 326 324 322 318 314 304 295 292 292 289 287 290 290 287 290 294 295 300 304 296 271 235 212 197 185 179 180 179 177 181 188 190 189 189 186 183 185 184 177 174 180 179 178 182 177 160 147 148 158 162 163 167 164 154 150 158 168 188 214 210 164 112 67 13 8 4 360 360 360 0 5 12 14 7 356 342 329 323 323 322
335 333 329 331 333 330 325 322 320 317 311 301 295 294 291 287 286 285 283 287 289 290 295 297 287 264 233 209 196 186 179 177 177 181 185 184 182 185 186 182 181 183 180 175 182 196 186 181 180 164 150 149 153 154 154 155 147 142 150 173 179 176 199 217 190 157 107 53 39 19 357 351 356 360 1 7 5 357 352 348 341 333 329 326 322
342 336 331 334 336 329 321 321 320 315 310 304 298 295 293 289 286 284 283 285 285 286 291 292 276 245 217 203 195 184 173 170 176 183 184 181 183 189 189 184 182 175 165 168 194 214 190 175 163 143 141 148 150 146 148 149 141 144 166 183 164 153 154 157 148 127 84 59 39 1 351 359 8 4 1 3 1 359 2 0 349 338 332 329 325
344 337 332 336 338 331 326 326 322 314 312 309 303 299 296 293 290 287 282 279 280 284 289 288 251 205 204 204 194 173 157 160 167 173 174 174 177 181 181 180 174 165 161 174 205 197 166 152 140 130 135 144 146 145 147 144 139 149 160 145 131 129 124 125 126 107 82 68 20 357 10 24 12 353 354 10 19 19 12 354 338 335 336 335 332
344 337 333 337 340 339 338 339 337 335 333 328 320 316 311 306 303 299 288 278 279 288 294 216 140 144 165 175 168 152 147 155 158 158 161 163 165 167 166 160 155 155 161 175 173 150 137 132 127 124 124 125 129 134 138 137 137 140 133 125 124 115 98 97 101 100 97 85 23 15 27 26 3 357 12 32 31 15 355 337 333 339 342 341 338
345 336 335 342 346 349 356 1 1 2 360 352 346 346 344 341 344 357 5 360 346 351 95 107 111 115 126 139 144 138 139 147 149 147 148 149 149 151 149 141 136 142 150 147 140 134 130 126 125 121 117 117 121 126 129 128 126 124 122 124 130 127 110 102 105 113 109 81 48 37 29 14 4 9 21 25 19 4 348 338 341 350 352 348 343
352 341 340 348 353 359 5 7 6 7 7 6 6 6 10 20 35 48 55 58 65 84 102 103 107 116 118 118 119 119 125 133 135 135 134 132 131 137 141 138 134 135 133 129 130 133 131 130 128 125 122 122 124 126 126 125 120 117 119 125 132 131 119 106 101 98 79 61 60 54 29 7 9 17 18 17 14 359 345 343 356 4 359 351 345
7 356 349 350 355 0 4 4 4 8 10 9 8 10 20 32 38 47 64 76 79 83 91 102 121 134 128 117 112 112 117 123 127 128 126 120 119 132 141 138 130 126 124 125 131 138 138 135 131 127 122 122 124 125 125 127 130 129 127 126 120 103 86 77 78 82 76 68 63 54 36 19 22 25 18 16 9 351 344 354 13 8 354 346 342
20 8 1 357 354 356 1 2 3 9 13 13 15 22 36 44 42 45 56 72 80 81 81 83 88 98 107 113 113 113 116 119 121 120 117 114 115 122 126 124 120 120 123 126 132 137 138 136 132 126 119 115 116 116 113 116 125 130 124 113 103 89 72 62 61 71 82 77 59 45 37 40 50 48 27 10 2 354 354 7 13 359 344 339 339
29 20 17 13 5 2 3 5 8 13 16 16 18 25 37 48 49 48 50 57 67 76 80 80 81 88 100 111 114 114 116 118 115 111 111 112 112 111 110 110 111 113 114 118 124 130 133 133 132 127 120 115 113 111 112 118 129 130 110 90 93 92 72 55 49 55 77 75 57 42 40 49 63 66 36 10 6 4 3 7 6 354 343 340 344
35 32 31 28 22 19 16 14 17 20 21 22 23 26 33 44 50 52 52 53 56 63 70 76 78 84 98 110 114 115 116 116 113 109 109 111 113 114 113 111 111 110 109 111 117 122 126 129 131 131 129 128 127 125 126 130 134 125 91 72 84 101 83 55 42 45 70 74 57 48 49 54 60 53 24 11 12 10 359 353 354 352 347 348 0
40 39 38 34 32 33 31 29 29 29 29 32 32 32 37 44 49 53 58 62 62 63 68 73 72 74 86 101 110 112 113 113 110 108 108 109 113 117 118 117 116 116 116 115 116 118 122 127 131 131 130 132 133 132 128 123 115 98 72 59 77 105 102 62 41 44 62 70 58 54 56 55 53 41 24 15 13 7 354 348 350 351 352 2 19
45 43 41 37 38 40 41 42 44 41 40 41 42 42 45 49 51 56 64 70 74 75 78 82 83 82 86 95 101 105 107 109 109 108 109 111 113 117 120 120 120 122 122 120 120 122 125 127 126 122 122 126 130 126 115 103 93 76 51 51 75 110 125 81 46 40 50 63 59 53 52 50 46 38 30 22 14 3 355 355 357 359 5 21 26
51 53 51 45 43 45 47 50 52 51 51 51 50 51 53 54 58 64 69 73 79 81 81 83 87 88 90 93 97 100 103 106 108 109 110 110 111 113 115 116 115 114 113 112 111 110 114 120 124 125 126 127 124 115 102 87 77 65 49 49 67 87 100 82 49 36 40 52 53 46 46 47 43 36 28 21 14 3 357 358 2 7 18 25 20
Height
793 794 794 795 796 796 797 798 800 802 803 804 806 809 811 812 813 815 816 816 817 817 817 817 818 818 819 819 820 821 822 823 824 825 825 826 827 828 829 829 830 831 832 833 834 835 836 837 838 839 840 841 842 842 843 843 844 844 845 845 846 847 847 848 851 854 856 856 857 858 859 859 860 860 860 860 860 860 859 859 859 858 858 858 858
793 794 795 796 797 797 798 799 801 802 803 804 806 808 810 812 814 815 815 816 816 816 817 817 818 818 819 820 821 821 822 823 824 825 826 827 827 828 829 829 830 831 832 833 834 835 836 837 838 839 840 841 841 842 843 844 844 844 845 846 847 848 848 849 851 853 855 856 857 858 859 859 859 859 859 859 859 859 859 859 859 858 858 857 857
793 795 796 797 797 798 799 799 800 801 802 804 806 807 810 812 814 815 815 816 816 816 816 817 817 818 819 820 821 822 822 823 825 826 827 827 828 828 829 830 831 831 832 834 835 836 836 837 838 839 840 841 841 842 843 844 844 845 846 847 848 849 849 851 852 853 854 855 856 857 858 858 858 858 858 858 858 859 859 859 858 859 859 858 857
792 794 796 797 797 798 798 798 799 801 803 805 806 807 810 812 814 815 815 815 815 815 816 816 817 818 819 820 821 822 823 824 825 827 828 829 829 829 830 830 831 832 833 834 835 836 837 838 839 840 841 842 842 843 844 845 845 846 847 848 849 849 850 850 852 852 853 854 854 856 857 857 857 857 857 857 857 857 858 858 858 858 858 858 858
791 792 795 796 796 797 798 798 799 801 803 805 806 808 810 812 814 814 814 815 815 815 816 816 817 818 819 820 821 822 823 824 826 828 829 830 831 831 831 832 833 833 834 835 836 837 838 839 840 841 842 843 844 844 845 846 846 847 847 848 849 850 850 850 851 852 852 853 853 855 856 856 856 856 856 856 856 856 857 857 857 857 858 858 859
791 793 794 795 796 797 797 799 800 801 803 805 807 808 810 812 813 814 814 814 815 815 816 817 818 819 820 821 821 822 823 825 827 829 830 831 832 832 833 833 834 834 835 835 836 837 838 839 840 841 842 843 844 845 846 846 847 847 848 849 850 850 851 851 851 851 852 853 853 854 855 855 856 856 856 856 855 855 856 856 856 857 858 858 858
792 794 794 795 796 797 798 799 801 802 804 805 807 808 810 811 812 812 813 813 814 815 816 817 818 820 821 821 822 823 824 825 827 829 831 832 833 833 834 834 835 835 835 836 837 838 838 839 840 841 842 843 844 845 845 846 847 847 848 849 850 850 851 851 852 852 852 853 853 853 853 854 855 855 855 855 855 855 855 855 856 856 857 857 857
793 794 794 795 797 798 799 801 802 803 805 806 807 808 809 810 811 811 812 813 814 815 816 818 819 820 821 822 823 824 825 827 828 830 832 833 833 834 834 835 835 835 836 836 837 837 838 839 839 840 841 841 842 844 845 846 847 848 848 849 850 850 851 852 852 852 852 852 853 853 853 853 854 854 855 855 855 855 855 855 855 856 856 856 856
794 795 795 796 798 799 800 802 803 804 805 806 807 808 808 809 810 811 812 813 815 816 817 818 819 820 821 822 824 825 827 829 830 831 832 833 833 834 834 834 835 835 836 836 837 837 837 838 837 838 839 839 841 843 845 847 847 848 849 849 850 850 850 851 852 852 853 852 852 852 852 853 853 854 854 854 855 855 854 854 855 855 855 854 854
796 797 797 798 799 800 801 802 803 804 805 806 807 808 808 809 809 811 812 813 814 814 815 816 817 819 820 822 824 825 827 829 830 831 832 833 833 833 833 834 834 834 835 835 836 836 836 836 837 837 838 839 840 842 843 846 847 848 849 849 849 850 850 851 852 852 853 852 852 852 852 853 853 853 853 853 854 854 854 854 855 855 855 853 853
798 799 799 800 800 801 802 803 803 804 804 806 807 807 808 808 809 810 811 811 812 812 814 815 816 817 819 820 822 823 824 826 828 830 831 832 832 832 833 833 833 834 834 834 834 834 834 836 836 837 837 838 839 840 841 843 845 847 849 849 849 849 850 851 852 852 852 852 852 852 851 852 852 852 853 853 853 854 854 854 855 854 854 853 852
799 800 800 802 802 802 804 804 804 805 805 805 806 807 808 808 809 810 810 810 811 812 813 814 815 816 818 819 820 821 822 824 825 827 829 830 831 832 832 832 832 833 833 833 833 833 833 835 836 836 837 837 839 840 840 841 843 844 847 848 849 849 850 851 851 852 852 852 852 852 852 852 852 852 852 852 853 854 854 854 855 854 854 854 853
800 801 801 803 803 803 805 804 804 805 805 805 806 806 807 807 808 809 809 809 810 810 811 812 814 815 817 818 820 821 824 824 824 825 827 829 830 830 830 830 830 831 831 831 831 831 833 835 835 836 837 837 838 838 839 840 841 843 845 847 849 849 849 850 851 851 852 852 852 852 852 852 852 852 853 853 853 853 853 854 854 854 854 853 852
803 804 804 805 805 805 806 805 805 806 805 805 805 806 807 807 807 808 808 808 809 809 811 812 813 814 816 817 819 821 823 824 824 825 826 827 827 827 828 828 828 828 828 828 829 831 833 834 834 835 836 835 836 837 837 838 839 841 843 845 847 849 850 850 850 850 851 851 851 852 851 851 852 852 853 853 853 853 854 854 854 853 853 852 851
806 807 808 808 808 808 808 807 807 807 806 806 806 806 806 807 807 808 808 809 809 809 810 811 812 813 814 816 817 818 820 822 823 823 824 825 826 826 826 826 826 826 826 827 830 831 832 832 831 832 832 833 834 835 836 836 837 838 840 842 845 847 848 849 849 849 850 850 850 851 851 851 852 852 853 853 853 853 853 853 853 852 851 850 849
809 810 810 811 810 810 809 809 809 809 808 807 807 807 807 807 807 807 808 809 809 809 810 810 811 812 812 814 815 815 817 819 820 820 821 822 823 823 823 823 824 824 824 826 828 829 829 830 829 829 830 831 833 834 834 835 836 837 838 840 843 844 845 847 848 848 849 849 850 850 851 851 852 852 852 853 852 852 852 852 852 851 850 849 848
812 813 813 813 812 812 811 810 810 810 810 809 809 808 807 807 806 806 807 807 808 808 808 809 809 810 810 811 812 813 814 815 816 816 817 819 820 820 820 821 821 822 822 824 826 826 827 827 826 827 828 829 831 833 833 834 836 837 838 840 842 843 844 846 847 847 848 848 849 850 850 851 852 852 852 852 851 851 851 851 851 851 850 849 848
815 815 815 814 814 814 813 813 813 813 812 811 810 809 808 807 806 805 805 806 806 806 807 807 807 807 807 808 810 810 811 811 813 814 814 816 816 817 818 818 819 820 821 822 824 824 824 825 824 825 826 827 828 830 832 834 836 836 838 839 841 842 843 845 846 846 847 848 848 849 850 851 851 851 851 851 850 850 850 850 850 850 850 850 849
817 816 816 815 815 816 816 816 816 815 814 813 812 810 809 807 806 805 805 804 804 804 805 805 805 805 805 805 806 807 808 809 810 811 811 812 813 814 815 816 817 818 819 821 822 822 822 823 823 823 824 826 827 828 830 833 835 836 837 838 840 841 842 844 845 845 846 847 848 849 849 850 850 850 850 850 849 849 849 849 850 849 849 849 848
817 817 817 817 818 819 818 818 817 816 815 814 812 811 809 808 807 805 804 804 803 803 802 802 802 802 802 802 803 804 805 806 807 807 808 809 810 811 813 814 815 815 816 818 819 819 820 820 821 823 824 825 826 828 830 832 834 835 837 838 839 840 841 843 844 845 846 847 847 848 848 848 848 849 849 849 849 849 849 849 849 849 849 849 848
818 818 818 818 818 818 818 818 817 815 814 813 811 810 809 807 806 805 804 803 802 801 801 800 800 800 800 800 800 800 801 803 804 804 805 806 807 808 810 812 813 813 814 816 816 817 818 819 820 822 823 824 825 827 829 831 833 834 835 837 838 840 841 843 844 845 846 846 847 847 847 848 848 848 848 848 848 848 848 849 849 849 849 848 846
818 818 818 818 817 817 817 816 815 814 813 811 810 808 807 807 805 804 803 802 800 799 798 798 798 798 798 798 798 797 798 800 801 802 802 804 805 805 807 809 809 809 811 812 813 814 816 818 819 821 822 823 825 826 828 831 832 833 834 836 838 840 841 843 844 845 845 846 846 846 847 847 848 848 849 849 848 848 848 849 849 848 847 847 846
818 818 817 817 816 816 816 815 813 812 811 809 808 806 805 805 804 802 801 800 799 798 796 796 796 795 795 795 795 795 796 797 798 799 799 801 802 802 804 805 806 807 808 810 811 812 814 817 818 819 821 823 825 826 828 830 831 833 834 836 838 840 841 843 844 844 845 845 845 846 846 847 847 848 848 848 847 847 847 847 847 846 845 845 845
818 817 817 816 815 815 814 813 812 811 809 808 807 805 803 803 801 800 799 798 797 796 795 794 793 792 792 792 792 792 793 794 795 796 796 798 799 799 800 802 803 805 808 809 808 809 812 816 817 818 820 822 825 826 828 830 831 833 834 836 838 839 841 842 843 843 843 844 845 845 846 847 847 848 848 847 847 847 847 846 846 845 844 843 843
817 817 816 815 814 814 813 812 811 810 809 808 806 804 802 801 799 798 797 796 795 794 793 792 791 790 790 789 789 790 791 792 793 793 794 795 796 797 798 799 801 803 806 807 807 808 812 815 817 818 820 823 825 826 828 830 831 833 835 836 838 839 840 841 842 842 843 844 844 845 846 846 847 847 847 846 846 846 846 845 845 844 843 843 842
816 816 815 814 814 813 812 811 810 809 808 807 805 803 802 800 798 797 795 794 794 792 790 789 788 788 788 787 787 788 789 790 791 792 792 793 795 796 797 798 799 800 802 805 806 808 811 814 816 819 822 823 825 827 828 830 832 834 835 837 838 839 840 840 841 841 842 843 844 844 845 846 846 846 846 846 846 846 845 844 843 842 842 842 841
815 815 814 814 813 812 811 810 809 807 806 805 803 802 800 799 797 796 794 793 792 790 789 787 786 785 785 786 786 786 787 789 790 791 792 792 793 795 797 798 797 797 799 802 805 807 810 814 817 819 822 824 826 827 829 831 833 834 836 837 838 838 838 839 840 840 841 843 843 844 844 845 845 845 846 846 845 845 844 843 842 842 842 841 841
816 815 814 813 813 811 810 809 808 806 804 803 801 800 798 797 796 794 793 792 790 789 788 787 785 783 782 782 784 784 785 787 788 789 791 792 791 792 796 798 796 795 797 800 803 807 811 814 817 820 822 824 826 828 830 832 833 834 836 837 837 838 838 839 840 841 842 842 843 843 844 844 845 845 845 845 844 843 842 842 842 842 842 841 841
816 815 814 813 812 811 810 809 807 806 804 802 800 798 797 796 795 793 791 790 789 788 788 787 786 784 781 780 781 782 783 784 785 787 789 791 790 789 791 794 794 795 797 799 802 807 811 814 817 820 822 824 826 828 830 832 833 835 836 836 837 838 838 839 840 841 841 841 842 843 843 844 844 844 844 843 843 842 842 842 842 842 841 841 840
816 815 814 813 812 811 809 808 807 806 804 802 799 797 795 794 793 791 789 787 787 786 786 785 784 784 783 781 779 780 781 782 784 785 786 790 790 788 787 789 792 794 798 800 802 806 810 814 817 820 822 824 826 828 830 831 833 834 835 836 837 837 838 839 840 840 840 841 842 842 843 843 843 843 843 842 842 842 842 842 842 841 841 840 839
815 814 813 812 811 810 809 808 807 805 804 802 799 797 794 791 790 789 787 786 784 783 783 782 782 782 782 781 779 778 779 780 782 783 785 789 791 789 788 789 791 794 797 800 804 807 810 814 817 819 822 824 826 828 829 831 832 834 835 836 837 837 838 839 839 840 840 841 841 842 842 842 842 842 841 841 841 841 841 841 841 840 840 839 839
815 814 813 812 811 810 809 807 806 805 803 801 799 797 795 792 789 787 786 785 783 782 780 779 780 780 779 779 778 778 777 778 780 783 786 788 788 787 787 789 791 794 797 800 804 808 810 813 816 819 821 824 825 827 829 830 832 833 834 835 836 837 838 839 839 840 841 841 841 841 841 841 841 840 840 840 840 840 840 840 840 839 839 838 837
814 813 812 811 810 809 808 806 805 803 802 800 799 797 795 793 790 788 786 784 782 781 779 778 778 778 777 777 778 778 778 778 779 783 788 791 789 787 787 789 791 794 797 799 803 807 810 813 816 818 820 822 824 826 827 829 831 832 833 834 836 837 838 839 839 840 840 840 841 841 840 840 839 839 839 840 839 839 839 839 839 838 837 837 836
812 811 810 809 808 807 805 804 803 802 800 799 798 796 795 793 791 789 787 785 782 781 779 778 777 777 777 776 776 778 778 778 779 782 787 790 791 791 790 791 792 795 797 799 802 806 809 812 815 817 819 821 823 824 826 828 830 832 833 834 835 836 837 838 838 839 839 840 840 840 839 839 838 838 838 838 838 838 838 838 837 837 836 835 835
811 810 808 807 806 804 803 802 801 800 799 798 796 795 794 793 792 790 788 786 784 782 780 778 776 776 776 775 775 775 776 778 780 782 785 788 790 790 790 790 792 794 796 799 801 804 808 811 813 815 818 819 821 823 825 827 829 831 833 834 835 835 836 837 838 838 839 839 839 839 839 838 837 837 837 837 837 837 837 837 836 836 835 835 834
809 808 807 806 804 803 801 800 799 798 797 796 795 794 793 792 791 790 788 787 785 783 781 779 777 775 775 775 775 775 776 778 780 782 784 786 788 788 788 789 791 793 795 798 801 804 807 809 812 814 816 818 820 822 825 827 829 831 832 834 834 835 836 837 837 838 839 839 839 839 838 837 836 836 836 836 836 836 836 835 835 835 834 834 833
808 807 806 804 803 801 800 798 797 796 795 794 794 793 791 791 790 789 788 786 785 783 781 780 779 777 775 774 775 776 777 778 780 782 784 786 787 787 788 789 792 795 796 798 801 804 806 808 811 814 815 816 819 822 825 827 829 831 832 833 834 835 835 836 837 838 838 838 838 838 837 836 835 835 835 835 835 835 834 834 834 834 834 833 832
807 806 805 803 802 800 799 797 796 795 794 793 792 791 790 789 789 788 787 785 784 782 781 780 779 778 775 774 775 776 777 778 780 781 783 785 787 787 788 789 791 794 797 799 802 805 807 808 811 813 814 816 818 821 824 827 829 830 831 833 834 834 835 836 837 838 838 838 838 837 836 835 834 834 834 834 834 834 834 834 834 833 833 832 830
806 805 804 802 800 799 798 797 796 795 793 792 791 790 789 788 787 786 785 784 783 781 780 778 777 776 775 774 774 775 776 776 778 780 781 783 786 788 789 790 791 793 796 800 803 806 807 809 811 812 813 816 818 821 824 827 828 829 832 833 833 834 835 836 836 837 837 837 837 836 835 834 834 834 834 834 834 834 834 833 833 833 832 830 829
806 804 802 801 800 799 797 796 795 794 792 791 790 789 788 786 785 784 783 782 781 780 778 776 775 775 774 774 774 775 775 775 777 779 781 783 786 788 789 791 792 794 797 801 805 807 808 809 810 812 813 816 818 821 824 826 828 830 832 832 833 834 835 836 836 836 836 836 836 835 834 834 834 834 834 834 833 833 833 833 833 832 831 830 828
805 804 802 800 799 798 796 795 794 793 791 790 789 788 786 784 783 782 781 780 779 778 776 774 774 774 774 774 776 777 777 776 778 780 782 784 787 789 791 793 794 796 799 803 806 807 807 808 810 812 814 816 819 821 823 826 828 829 831 832 833 834 835 835 835 835 835 835 835 834 834 834 834 833 833 833 833 833 833 833 832 831 830 828 827
805 804 802 800 799 798 796 795 793 792 791 789 788 786 784 782 780 779 778 776 776 777 776 774 774 774 774 775 777 778 778 778 779 782 783 786 788 790 792 795 797 799 802 805 806 806 806 807 810 813 815 818 820 821 823 826 828 829 830 832 833 834 835 834 834 834 835 835 834 834 834 833 833 833 833 832 832 832 832 832 831 830 829 828 827
805 804 802 801 799 798 796 795 793 792 790 789 787 785 783 781 780 778 777 775 775 777 777 776 776 776 776 776 778 779 779 780 781 783 785 787 790 792 794 796 798 801 803 805 805 806 806 808 811 814 816 818 820 822 824 826 828 829 831 832 833 834 834 834 834 834 834 834 833 833 833 833 833 833 833 832 832 832 831 830 830 829 828 827 826
805 803 802 801 800 798 797 796 794 792 791 789 787 785 784 783 781 780 778 777 777 778 778 779 779 779 779 779 780 781 781 783 784 786 787 789 791 793 796 798 800 802 804 805 806 807 808 810 813 815 817 819 820 822 824 827 828 830 831 832 833 833 833 833 833 833 833 833 833 833 833 833 833 832 832 832 832 831 830 830 829 828 827 826 824
805 804 803 801 800 799 798 796 795 793 792 790 788 786 785 785 784 782 782 781 781 781 781 782 782 782 782 782 783 783 784 786 787 788 790 792 794 796 798 800 802 804 805 806 807 808 810 812 815 817 818 820 822 824 826 828 829 830 831 832 832 832 832 833 833 833 833 833 832 832 832 832 832 832 832 832 831 830 829 829 829 828 826 825 823
805 804 803 802 801 800 799 798 796 795 793 792 790 788 787 787 786 785 785 785 784 784 784 785 785 785 784 784 785 786 788 789 790 791 793 795 797 799 801 802 803 805 806 807 809 811 813 815 816 818 820 823 825 827 829 829 830 831 832 832 832 832 832 832 833 832 832 832 832 832 832 831 831 831 831 831 830 829 829 829 828 827 825 824 823
805 805 804 803 802 801 800 799 798 796 795 795 793 791 790 790 789 788 788 788 788 788 788 788 788 788 788 788 789 790 791 792 793 795 797 798 799 801 803 804 805 806 808 809 811 813 814 816 818 820 822 825 827 828 829 830 830 831 832 832 832 832 832 832 832 832 832 831 831 831 831 831 830 830 830 830 829 829 828 828 827 826 824 823 822
806 806 805 804 804 803 802 800 799 799 798 797 796 794 793 792 792 791 791 791 791 791 791 791 791 791 791 791 792 793 794 795 797 798 799 800 801 803 804 806 807 809 810 812 813 815 816 818 820 822 824 826 827 828 829 830 831 831 832 832 832 832 832 832 832 831 831 831 831 831 830 830 830 830 829 829 828 828 828 827 826 824 823 822 821
806 806 806 805 805 804 803 802 801 801 800 799 798 797 796 795 795 795 794 794 794 794 794 794 793 793 793 794 795 796 797 798 800 801 802 803 805 806 807 809 811 812 813 815 816 818 819 821 823 824 825 827 827 828 829 830 831 831 831 831 831 832 832 832 831 831 831 831 830 830 830 829 829 829 828 828 828 828 827 826 825 824 823 822 821
807 807 807 806 806 805 805 804 803 803 802 801 801 800 799 798 798 797 797 797 797 797 797 796 796 796 796 796 797 798 800 801 803 804 805 807 808 810 811 813 814 815 817 818 819 820 821 823 824 825 826 826 827 828 830 831 831 831 832 831 831 832 831 831 831 831 830 830 830 830 829 829 829 828 828 828 828 827 826 825 824 823 822 822 821
807 807 807 807 807 806 806 806 805 805 804 804 803 802 802 801 800 800 800 800 800 800 799 799 799 799 799 799 800 801 802 804 805 807 808 810 811 813 814 816 817 818 819 821 821 822 823 824 824 825 825 826 827 829 830 831 832 832 832 832 832 831 831 831 830 830 830 830 830 829 829 828 828 828 828 828 827 826 825 825 824 823 822 822 821